When you browse on this site, cookies collect data to enhance your experience and personalize the content and advertising you see.
Visit our Privacy Policy to learn more. By continuing to use the site, you agree to this use of cookies and data.
  • în România
  • Lista ţărilor
  • Pe 7 zile
  • Temperatura apei
  • Meteo pe hartă
  • Widget-uri
  • user-avatar
    Intrare

    Meteo pe oră la Kanye

    Astăzi, 14 Noiembrie, Joi

    Timp Temperatura Precipitaţii Vânt Presiune Umiditate
    00:00 +21°C° 0.2 mm 3 m/s 648 mmHg 52%
    01:00 +21°C° 0.2 mm 2 m/s 648 mmHg 58%
    02:00 +21°C° 0 mm 1 m/s 648 mmHg 63%
    03:00 +21°C° 0.1 mm 1 m/s 648 mmHg 67%
    04:00 +20°C° 0.1 mm 1 m/s 648 mmHg 70%
    05:00 +20°C° 0.1 mm 1 m/s 648 mmHg 73%
    06:00 +20°C° 0 mm 2 m/s 649 mmHg 69%
    07:00 +22°C° 0 mm 3 m/s 650 mmHg 65%
    08:00 +24°C° 0 mm 3 m/s 651 mmHg 62%
    09:00 +27°C° 0 mm 4 m/s 651 mmHg 49%
    10:00 +29°C° 0 mm 5 m/s 651 mmHg 36%
    11:00 +32°C° 0 mm 6 m/s 651 mmHg 24%
    12:00 +32°C° 0 mm 7 m/s 651 mmHg 20%
    13:00 +33°C° 0 mm 7 m/s 650 mmHg 17%
    14:00 +33°C° 0 mm 8 m/s 650 mmHg 13%
    15:00 +33°C° 0 mm 8 m/s 649 mmHg 13%
    16:00 +32°C° 0 mm 8 m/s 649 mmHg 12%
    17:00 +32°C° 0 mm 8 m/s 648 mmHg 11%
    18:00 +29°C° 0 mm 6 m/s 648 mmHg 12%
    19:00 +27°C° 0 mm 5 m/s 648 mmHg 14%
    20:00 +26°C° 0 mm 3 m/s 648 mmHg 16%
    21:00 +25°C° 0 mm 3 m/s 648 mmHg 16%
    22:00 +24°C° 0 mm 3 m/s 648 mmHg 16%
    23:00 +24°C° 0 mm 3 m/s 648 mmHg 16%

    Mâine, 15 Noiembrie, Vineri

    Timp Temperatura Precipitaţii Vânt Presiune Umiditate
    00:00 +22°C° 0 mm 3 m/s 648 mmHg 19%
    01:00 +21°C° 0 mm 3 m/s 648 mmHg 21%
    02:00 +20°C° 0 mm 3 m/s 647 mmHg 24%
    03:00 +19°C° 0 mm 3 m/s 647 mmHg 25%
    04:00 +19°C° 0 mm 3 m/s 647 mmHg 26%
    05:00 +18°C° 0 mm 2 m/s 647 mmHg 28%
    06:00 +20°C° 0 mm 2 m/s 648 mmHg 25%
    07:00 +23°C° 0 mm 2 m/s 648 mmHg 23%
    08:00 +25°C° 0 mm 2 m/s 649 mmHg 20%
    09:00 +27°C° 0 mm 2 m/s 650 mmHg 17%
    10:00 +28°C° 0 mm 2 m/s 650 mmHg 15%
    11:00 +30°C° 0 mm 1 m/s 650 mmHg 12%
    12:00 +31°C° 0 mm 2 m/s 649 mmHg 11%
    13:00 +33°C° 0 mm 3 m/s 649 mmHg 10%
    14:00 +34°C° 0 mm 3 m/s 649 mmHg 10%
    15:00 +33°C° 0 mm 4 m/s 648 mmHg 10%
    16:00 +33°C° 0 mm 4 m/s 648 mmHg 10%
    17:00 +33°C° 0 mm 4 m/s 647 mmHg 11%
    18:00 +30°C° 0 mm 3 m/s 647 mmHg 14%
    19:00 +28°C° 0 mm 2 m/s 647 mmHg 16%
    20:00 +26°C° 0 mm 1 m/s 647 mmHg 19%
    21:00 +26°C° 0 mm 1 m/s 647 mmHg 20%
    22:00 +23°C° 0 mm 0 m/s 646 mmHg 21%
    23:00 +22°C° 0 mm 0 m/s 646 mmHg 22%

    Poimâine, 16 Noiembrie, Sâmbătă

    Timp Temperatura Precipitaţii Vânt Presiune Umiditate
    00:00 +22°C° 0 mm 0 m/s 646 mmHg 23%
    01:00 +21°C° 0 mm 0 m/s 646 mmHg 23%
    02:00 +21°C° 0 mm 0 m/s 645 mmHg 24%
    03:00 +22°C° 0 mm 1 m/s 646 mmHg 24%
    04:00 +22°C° 0 mm 1 m/s 646 mmHg 24%
    05:00 +21°C° 0 mm 2 m/s 646 mmHg 23%
    06:00 +22°C° 0 mm 3 m/s 646 mmHg 27%
    07:00 +23°C° 0 mm 4 m/s 647 mmHg 31%
    08:00 +23°C° 0 mm 5 m/s 648 mmHg 35%
    09:00 +26°C° 0 mm 5 m/s 648 mmHg 32%
    10:00 +29°C° 0 mm 4 m/s 648 mmHg 28%
    11:00 +32°C° 0 mm 4 m/s 649 mmHg 25%
    12:00 +33°C° 0 mm 3 m/s 649 mmHg 21%
    13:00 +35°C° 0 mm 2 m/s 648 mmHg 16%
    14:00 +35°C° 0 mm 1 m/s 648 mmHg 12%
    15:00 +35°C° 0 mm 1 m/s 648 mmHg 11%
    16:00 +36°C° 0 mm 2 m/s 647 mmHg 11%
    17:00 +36°C° 0 mm 2 m/s 647 mmHg 10%
    18:00 +34°C° 0 mm 2 m/s 646 mmHg 12%
    19:00 +31°C° 0 mm 1 m/s 646 mmHg 14%
    20:00 +29°C° 0 mm 1 m/s 646 mmHg 17%
    21:00 +28°C° 0 mm 2 m/s 646 mmHg 20%
    22:00 +27°C° 0 mm 3 m/s 646 mmHg 23%
    23:00 +27°C° 0 mm 4 m/s 646 mmHg 25%

    17 Noiembrie, Duminică

    Timp Temperatura Precipitaţii Vânt Presiune Umiditate
    00:00 +26°C° 0 mm 4 m/s 645 mmHg 29%
    01:00 +25°C° 0 mm 4 m/s 645 mmHg 32%
    02:00 +25°C° 0 mm 4 m/s 644 mmHg 36%
    03:00 +23°C° 0 mm 4 m/s 645 mmHg 38%
    04:00 +23°C° 0 mm 4 m/s 645 mmHg 40%
    05:00 +22°C° 0 mm 4 m/s 645 mmHg 41%
    06:00 +23°C° 0 mm 5 m/s 646 mmHg 40%
    07:00 +26°C° 0 mm 6 m/s 647 mmHg 38%
    08:00 +27°C° 0 mm 7 m/s 647 mmHg 36%
    09:00 +29°C° 0 mm 7 m/s 648 mmHg 32%
    10:00 +32°C° 0 mm 7 m/s 648 mmHg 29%
    11:00 +34°C° 0 mm 7 m/s 649 mmHg 25%
    12:00 +35°C° 0 mm 6 m/s 648 mmHg 21%
    13:00 +38°C° 0 mm 6 m/s 648 mmHg 16%
    14:00 +39°C° 0 mm 6 m/s 647 mmHg 12%
    15:00 +39°C° 0 mm 5 m/s 647 mmHg 12%
    16:00 +37°C° 0 mm 5 m/s 646 mmHg 12%
    17:00 +37°C° 0 mm 5 m/s 646 mmHg 12%
    18:00 +35°C° 0 mm 4 m/s 646 mmHg 13%
    19:00 +33°C° 0 mm 3 m/s 646 mmHg 15%
    20:00 +31°C° 0 mm 3 m/s 645 mmHg 17%
    21:00 +30°C° 0 mm 3 m/s 646 mmHg 18%
    22:00 +29°C° 0 mm 3 m/s 646 mmHg 19%
    23:00 +29°C° 0 mm 3 m/s 646 mmHg 20%

    18 Noiembrie, Luni

    Timp Temperatura Precipitaţii Vânt Presiune Umiditate
    00:00 +28°C° 0 mm 3 m/s 646 mmHg 20%
    01:00 +27°C° 0 mm 3 m/s 646 mmHg 20%
    02:00 +26°C° 0 mm 4 m/s 645 mmHg 20%
    03:00 +26°C° 0 mm 3 m/s 646 mmHg 21%
    04:00 +25°C° 0 mm 2 m/s 646 mmHg 23%
    05:00 +24°C° 0 mm 2 m/s 646 mmHg 24%
    06:00 +26°C° 0 mm 2 m/s 646 mmHg 22%
    07:00 +28°C° 0 mm 2 m/s 647 mmHg 20%
    08:00 +30°C° 0 mm 2 m/s 648 mmHg 18%
    09:00 +31°C° 0 mm 3 m/s 648 mmHg 17%
    10:00 +34°C° 0 mm 4 m/s 649 mmHg 17%
    11:00 +36°C° 0 mm 5 m/s 649 mmHg 16%
    12:00 +36°C° 0 mm 5 m/s 649 mmHg 16%
    13:00 +37°C° 0 mm 4 m/s 648 mmHg 16%
    14:00 +37°C° 0 mm 4 m/s 648 mmHg 16%
    15:00 +36°C° 0 mm 4 m/s 647 mmHg 18%
    16:00 +36°C° 0 mm 4 m/s 647 mmHg 19%
    17:00 +35°C° 0 mm 5 m/s 647 mmHg 20%
    18:00 +33°C° 0 mm 5 m/s 647 mmHg 26%
    19:00 +30°C° 0 mm 5 m/s 647 mmHg 32%
    20:00 +28°C° 0 mm 6 m/s 647 mmHg 38%
    21:00 +28°C° 0 mm 7 m/s 647 mmHg 40%
    22:00 +28°C° 0 mm 7 m/s 648 mmHg 42%
    23:00 +28°C° 0 mm 8 m/s 648 mmHg 44%

    19 Noiembrie, Marţi

    Timp Temperatura Precipitaţii Vânt Presiune Umiditate
    00:00 +27°C° 0 mm 8 m/s 648 mmHg 47%
    01:00 +26°C° 0 mm 8 m/s 647 mmHg 51%
    02:00 +24°C° 0 mm 9 m/s 647 mmHg 55%
    03:00 +23°C° 0.1 mm 8 m/s 647 mmHg 60%
    04:00 +23°C° 0.1 mm 8 m/s 647 mmHg 65%
    05:00 +22°C° 0.1 mm 8 m/s 647 mmHg 70%
    06:00 +23°C° 0.8 mm 9 m/s 647 mmHg 69%
    07:00 +23°C° 0.8 mm 9 m/s 648 mmHg 68%
    08:00 +23°C° 0.8 mm 9 m/s 648 mmHg 67%
    09:00 +24°C° 0.6 mm 9 m/s 648 mmHg 64%
    10:00 +26°C° 0.6 mm 9 m/s 648 mmHg 60%
    11:00 +27°C° 0.6 mm 8 m/s 648 mmHg 56%
    12:00 +28°C° 0 mm 8 m/s 648 mmHg 52%
    13:00 +29°C° 0 mm 7 m/s 648 mmHg 48%
    14:00 +30°C° 0 mm 7 m/s 647 mmHg 43%
    15:00 +30°C° 0 mm 7 m/s 647 mmHg 40%
    16:00 +32°C° 0 mm 7 m/s 648 mmHg 37%
    17:00 +33°C° 0 mm 7 m/s 648 mmHg 34%
    18:00 +29°C° 0.4 mm 5 m/s 647 mmHg 43%
    19:00 +27°C° 0.4 mm 4 m/s 647 mmHg 52%
    20:00 +24°C° 0.4 mm 3 m/s 647 mmHg 61%
    21:00 +24°C° 0.2 mm 3 m/s 647 mmHg 63%
    22:00 +22°C° 0.2 mm 3 m/s 647 mmHg 66%
    23:00 +21°C° 0.2 mm 2 m/s 648 mmHg 68%
    Arată mai mult